Simultaneous Nadir Overpasses (SNOs) Predictions

Prediction of SNOs between AURA and NPP Satellite Orbit:

Table of predicted SNOs for the next 14.0 days since TLE Epoch: 8/20/2022
Index Date (AURA) Time (AURA) Lat,Lon (AURA) SZA (AURA ) Date (NPP) Time (NPP) Lat,Lon (NPP) SZA (NPP ) Distance(km) Time Diff (sec)
1 08/21/2022 11:25:29 79.48, -94.64 80.73 08/21/2022 11:25:26 79.48, -94.59 80.72 1.26 3
2 08/21/2022 12:14:30 -80.39, 80.47 100.73 08/21/2022 12:15:44 -80.30, 80.78 100.82 11.98 74
3 08/24/2022 02:52:35 -79.32,-147.46 98.20 08/24/2022 02:51:43 -79.33,-147.36 98.18 2.36 52
4 08/24/2022 03:41:55 79.54, 21.67 81.49 08/24/2022 03:42:21 79.54, 21.67 81.48 0.20 26
5 08/26/2022 19:08:59 -79.45, -30.73 97.51 08/26/2022 19:08:36 -79.46, -30.59 97.52 3.13 23
6 08/26/2022 19:58:19 79.66, 138.42 82.19 08/26/2022 19:59:14 79.66, 138.47 82.14 0.90 55
7 08/29/2022 10:36:05 79.19, -84.14 83.74 08/29/2022 10:34:55 79.19, -84.23 83.81 2.04 70
8 08/29/2022 11:25:24 -79.48, 85.38 96.66 08/29/2022 11:25:31 -79.48, 85.37 96.66 0.24 7
9 09/01/2022 02:52:28 79.29, 32.35 84.52 09/01/2022 02:51:48 79.28, 32.21 84.58 3.10 40



Historial Predications of SNOs between AURA and NPP
